Tiempo atmosférico en la estación meteorológica de Marbella, Puerto, Málaga (6 m.)



Fecha
DESCASC
Temp. máxima en grados centígrados (hora)
DESCASC
Temp. mínima en grados centígrados (hora)
DESCASC
Temp. media en grados centígrados
DESCASC
Racha de viento máxima en m/sg (hora)
DESCASC
Velocidad máxima media en intervalos de 10 minutos(hora)
DESCASC
Precipitaciones diarias en mm
DESCASC
Precipitaciones de 00:00 a 06:00 en mm
DESCASC
Precipitaciones de 06:00 a 12:00 en mm
DESCASC
Precipitaciones de 12:00 a 18:00 en mm
DESCASC
Precipitaciones de 18:00 a 24:00 en mm
DESCASC
16-04-2019 20.2 (17:10) 13 (07:40) 16.6 11.94 (02:20) 9.72 (02:30) 0 0 0 0 0
15-04-2019 22 (17:20) 15.1 (07:40) 18.6 16.11 (19:30) 13.33 (19:30) 0 0 0 0 0
14-04-2019 21.5 (18:00) 15 (00:00) 18.3 5.28 (20:20) 4.17 (20:10) 0 0 0 0 0
13-04-2019 20.9 (17:40) 13.8 (00:00) 17.3 5.83 (16:10) 4.72 (16:10) 0 0 0 0 0
12-04-2019 19.9 (17:10) 13.4 (00:00) 16.6 5.56 (18:00) 4.17 (18:20) 0 0 0 0 0
11-04-2019 21.3 (19:00) 12.6 (00:00) 16.9 11.94 (14:30) 9.17 (14:30) 0 0 0 0 0
10-04-2019 21.4 (18:00) 12.3 (00:00) 16.8 11.11 (20:40) 8.33 (20:50) 0 0 0 0 0
09-04-2019 20.5 (17:40) 11.7 (00:00) 16.1 14.17 (16:50) 10.28 (13:50) 0 0 0 0 0
08-04-2019 18.1 (16:40) 14.3 (00:00) 16.2 12.22 (19:00) 9.17 (16:00) 0 0 0 0 0
07-04-2019 16.8 (15:30) 12.1 (00:00) 14.4 12.22 (01:20) 9.72 (17:00) 1.6 0.2 0 0 1.4
06-04-2019 16.1 (13:30) 11.1 (00:00) 13.6 15.28 (15:40) 12.5 (15:40) 1 0 0 1 0
05-04-2019 16.5 (16:50) 11.8 (00:00) 14.2 16.94 (09:30) 14.17 (09:30) 11.6 0 7.8 3.8 0
04-04-2019 17.6 (10:20) 11.6 (00:00) 14.6 17.22 (17:10) 14.17 (16:50) 0 0 0 0 0
03-04-2019 22.8 (19:30) 12.9 (00:00) 17.8 8.61 (19:30) 5.56 (19:30) 0 0 0 0 0
02-04-2019 17.2 (11:20) 11.7 (00:00) 14.5 5.28 (21:00) 4.44 (21:00) 0 0 0 0 0
01-04-2019 16.8 (17:20) 12.8 (00:00) 14.8 8.33 (07:50) 5.28 (07:50) 7.2 0 3.6 3.6 0
31-03-2019 16.1 (16:50) 13.1 (00:00) 14.6 8.61 (00:50) 7.22 (03:30) 4 3.8 0.2 0 0
30-03-2019 16.2 (11:10) 14.2 (00:00) 15.2 11.11 (11:50) 8.89 (11:50) 2.6 0 0 0 2.6
29-03-2019 16.6 (16:30) 14.3 (00:00) 15.5 11.11 (10:40) 8.89 (10:30) 0 0 0 0 0
28-03-2019 -- (--) -- (--) -- 14.17 (12:00) 10.56 (12:10) 0 0 0 0 0
27-03-2019 -- (--) -- (--) -- 15.56 (06:20) 11.94 (04:40) 0 0 0 0 0
26-03-2019 -- (--) -- (--) -- 12.78 (23:00) 9.17 (23:00) 0 0 0 0 0
25-03-2019 -- (--) -- (--) -- 8.89 (20:20) 6.67 (12:50) 0 0 0 0 0
24-03-2019 18.1 (14:00) 15.3 (00:00) 16.7 12.22 (17:30) 9.17 (16:20) 0 0 0 0 0
23-03-2019 17 (16:40) 13.9 (00:00) 15.4 13.61 (14:30) 10.83 (14:50) 0 0 0 0 0
22-03-2019 15.1 (14:10) 12.8 (00:00) 14 11.11 (10:50) 8.89 (14:10) 0 0 0 0 0
21-03-2019 -- (--) -- (--) -- 12.22 (00:40) 9.17 (00:30) 3.4 3.4 0 0 0
20-03-2019 -- (--) -- (--) -- 13.89 (23:50) 9.44 (00:40) 5.2 1.2 3 0.2 0.8
19-03-2019 -- (--) -- (--) -- 8.33 (22:20) 6.39 (22:10) 0.2 0.2 0 0 0

Gráficas

Temp. máximas Temp. mínimas Temp. medias Precipitaciones Rachas de viento máximas Velocidades máximas media en intervalos de 10 minutos

Datos horarios

Fecha y hora oficial Temperatura (ºC) Velocidad del viento (km/h) Dirección del viento Racha (km/h) Dirección de racha Precipitación (mm) Presión (hPa) Tendencia (hPa) Humedad (%)
2019-04-17 23:00:00 16.3 11 Nordeste 15 Nordeste 0 -- -- 88
2019-04-17 22:00:00 16.4 3 Nordeste 22 Sudoeste 0 -- -- 88
2019-04-17 21:00:00 16.5 14 Sudoeste 20 Sudoeste 0 -- -- 87
2019-04-17 20:00:00 16.6 5 Sudoeste 20 Sudoeste 0 -- -- 86
2019-04-17 19:00:00 16.9 9 Sudoeste 19 Sur 0 -- -- 86
2019-04-17 18:00:00 17.2 9 Sur 15 Nordeste 0 -- -- 81
2019-04-17 17:00:00 17.5 14 Nordeste 18 Este 0 -- -- 76
2019-04-17 16:00:00 17.3 11 Este 26 Sudeste 0 -- -- 79
2019-04-17 15:00:00 17 21 Este 30 Este 0 -- -- 80
2019-04-17 14:00:00 17.6 23 Este 33 Este 0 -- -- 80
2019-04-17 13:00:00 17.4 23 Este 30 Este 0 -- -- 82
2019-04-17 12:00:00 17.5 17 Este 23 Este 0 -- -- 82
2019-04-17 11:00:00 16.7 9 Sudeste 21 Nordeste 0 -- -- 84
2019-04-17 10:00:00 17.1 16 Este 24 Nordeste 0 -- -- 77
2019-04-17 09:00:00 17.1 18 Nordeste 26 Nordeste 0 -- -- 77
2019-04-17 08:00:00 16.9 18 Este 30 Este 0 -- -- 76
2019-04-17 07:00:00 17.1 25 Nordeste 33 Nordeste 0 -- -- 70
2019-04-17 06:00:00 17.2 20 Nordeste 29 Nordeste 0 -- -- 70
2019-04-17 05:00:00 17.3 22 Nordeste 35 Nordeste 0 -- -- 68
2019-04-17 04:00:00 17.4 23 Nordeste 39 Nordeste 0 -- -- 66
2019-04-17 03:00:00 17.6 28 Nordeste 35 Nordeste 0 -- -- 69
2019-04-17 02:00:00 17.7 25 Nordeste 32 Este 0 -- -- 73
2019-04-17 01:00:00 16.5 7 Norte 19 Norte 0 -- -- 69
2019-04-17 00:00:00 16 9 Nordeste 17 Este 0 -- -- 78
2019-04-16 23:00:00 17.1 13 Nordeste 18 Este 0 -- -- 84
2019-04-16 22:00:00 17.2 4 Nordeste 6 Este 0 -- -- 86
2019-04-16 21:00:00 17.6 3 Este 8 Nordeste 0 -- -- 83
2019-04-16 20:00:00 19 6 Este 10 Este 0 -- -- 78
2019-04-16 19:00:00 20 6 Este 10 Este 0 -- -- 74
2019-04-16 18:00:00 19.3 5 Este 8 Este 0 -- -- 68
2019-04-16 17:00:00 19.8 2 Sudeste 6 Sur 0 -- -- 67
2019-04-16 16:00:00 18.3 4 Sur 7 Sur 0 -- -- 72
2019-04-16 15:00:00 18.6 3 Sur 13 Sudoeste 0 -- -- 73
2019-04-16 14:00:00 17.5 6 Sur 10 Sur 0 -- -- 76
2019-04-16 13:00:00 17.7 4 Sur 13 Sur 0 -- -- 75
2019-04-16 12:00:00 17.3 8 Sur 11 Sur 0 -- -- 75
2019-04-16 11:00:00 17.5 3 Sudoeste 5 Sur 0 -- -- 72
2019-04-16 10:00:00 17.6 2 Sudoeste 9 Sur 0 -- -- 71
2019-04-16 09:00:00 16.4 4 Nordeste 9 Norte 0 -- -- 71
2019-04-16 08:00:00 13.4 0 Calma 10 Noroeste 0 -- -- 78
2019-04-16 07:00:00 13.7 3 Norte 6 Noroeste 0 -- -- 78
2019-04-16 06:00:00 14 0 Calma 10 Norte 0 -- -- 75
2019-04-16 05:00:00 14.1 3 Norte 9 Norte 0 -- -- 77
2019-04-16 04:00:00 14.8 3 Oeste 19 Oeste 0 -- -- 79
2019-04-16 03:00:00 15.5 16 Oeste 43 Sudoeste 0 -- -- 80
2019-04-16 02:00:00 16.2 30 Sudoeste 40 Sudoeste 0 -- -- 82
2019-04-16 01:00:00 16.7 22 Sudoeste 40 Oeste 0 -- -- 81
2019-04-16 00:00:00 17.6 20 Oeste 39 Sudoeste 0 -- -- 75
2019-04-15 23:00:00 17.7 32 Sudoeste 43 Sudoeste 0 -- -- 79
2019-04-15 22:00:00 18.3 34 Sudoeste 45 Sudoeste 0 -- -- 77
2019-04-15 21:00:00 18.7 41 Sudoeste 52 Sudoeste 0 -- -- 74
2019-04-15 20:00:00 19.3 42 Sudoeste 58 Oeste 0 -- -- 66
2019-04-15 19:00:00 20.6 47 Sudoeste 57 Sudoeste 0 -- -- 60
2019-04-15 18:00:00 21.4 48 Sudoeste 57 Oeste 0 -- -- 56
2019-04-15 17:00:00 20.6 3 Este 11 Sur 0 -- -- 65
2019-04-15 16:00:00 19.9 5 Sur 13 Sudoeste 0 -- -- 70
2019-04-15 15:00:00 20 8 Sudoeste 10 Sudoeste 0 -- -- 71
2019-04-15 14:00:00 19 5 Sur 7 Sur 0 -- -- 77
2019-04-15 13:00:00 20 4 Sudoeste 12 Sudoeste 0 -- -- 74
2019-04-15 12:00:00 19.1 8 Sudoeste 10 Sudoeste 0 -- -- 74
2019-04-15 11:00:00 20.1 5 Sudoeste 6 Sudoeste 0 -- -- 69
2019-04-15 10:00:00 19.3 3 Sudoeste 5 Noroeste 0 -- -- 61
2019-04-15 09:00:00 17.2 4 Noroeste 8 Oeste 0 -- -- 62
2019-04-15 08:00:00 15.2 3 Sudoeste 7 Noroeste 0 -- -- 72
2019-04-15 07:00:00 15.7 0 Calma 8 Noroeste 0 -- -- 70
2019-04-15 06:00:00 16.3 3 Nordeste 8 Norte 0 -- -- 68
2019-04-15 05:00:00 16.1 6 Norte 9 Noroeste 0 -- -- 70
2019-04-15 04:00:00 16.9 5 Norte 9 Nordeste 0 -- -- 67
2019-04-15 03:00:00 17 3 Norte 8 Noroeste 0 -- -- 68
2019-04-15 02:00:00 17.8 3 Norte 7 Norte 0 -- -- 65
2019-04-15 01:00:00 18.1 3 Norte 8 Norte 0 -- -- 62
2019-04-15 00:00:00 18.2 4 Norte 8 Oeste 0 -- -- 62
2019-04-14 23:00:00 18.4 7 Oeste 14 Oeste 0 -- -- 61
2019-04-14 22:00:00 18.3 11 Sudoeste 13 Sudoeste 0 -- -- 76
2019-04-14 21:00:00 18.8 7 Oeste 19 Sudoeste 0 -- -- 64
2019-04-14 20:00:00 18.9 14 Sudoeste 17 Sudoeste 0 -- -- 65
2019-04-14 19:00:00 20.2 8 Sudoeste 10 Sudoeste 0 -- -- 72
2019-04-14 18:00:00 21.5 4 Sudoeste 5 Sudoeste 0 -- -- 64
2019-04-14 17:00:00 19.5 3 Sur 7 Sudeste 0 -- -- 74
2019-04-14 16:00:00 18.8 4 Este 6 Este 0 -- -- 74
2019-04-14 15:00:00 18.3 4 Este 8 Sudeste 0 -- -- 74
2019-04-14 14:00:00 19 4 Este 10 Nordeste 0 -- -- 74
2019-04-14 13:00:00 19.3 4 Nordeste 7 Nordeste 0 -- -- 74
2019-04-14 12:00:00 18.8 3 Este 6 Este 0 -- -- 72
2019-04-14 11:00:00 19.4 0 Calma 7 Este 0 -- -- 67
2019-04-14 10:00:00 18.5 4 Este 9 Sudeste 0 -- -- 71
2019-04-14 09:00:00 18.5 2 Norte 8 Norte 0 -- -- 55
2019-04-14 08:00:00 15.8 3 Noroeste 14 Norte 0 -- -- 60
2019-04-14 07:00:00 15.8 3 Norte 14 Norte 0 -- -- 58
2019-04-14 06:00:00 15.1 0 Calma 13 Noroeste 0 -- -- 64
2019-04-14 05:00:00 16.1 6 Norte 12 Norte 0 -- -- 55
2019-04-14 04:00:00 16 3 Noroeste 9 Sudoeste 0 -- -- 56
2019-04-14 03:00:00 16 4 Oeste 17 Noroeste 0 -- -- 58
2019-04-14 02:00:00 17.2 7 Norte 17 Norte 0 -- -- 48
2019-04-14 01:00:00 17.3 10 Norte 16 Noroeste 0 -- -- 51
2019-04-14 00:00:00 16.6 4 Noroeste 9 Noroeste 0 -- -- 65
2019-04-13 23:00:00 17.3 6 Oeste 9 Sudoeste 0 -- -- 75
2019-04-13 22:00:00 18.4 4 Norte 11 Norte 0 -- -- 75
2019-04-13 21:00:00 17.3 6 Nordeste 11 Nordeste 0 -- -- 85
2019-04-13 20:00:00 18.2 7 Nordeste 10 Este 0 -- -- 79
2019-04-13 19:00:00 19.3 5 Este 9 Sudoeste 0 -- -- 75
2019-04-13 18:00:00 20.2 4 Sudoeste 15 Sudoeste 0 -- -- 67
2019-04-13 17:00:00 19.3 13 Sudoeste 21 Sudoeste 0 -- -- 71
2019-04-13 16:00:00 19.3 13 Sudoeste 18 Sudoeste 0 -- -- 72
2019-04-13 15:00:00 19.8 5 Sudoeste 11 Sudoeste 0 -- -- 71
2019-04-13 14:00:00 19.2 3 Este 9 Este 0 -- -- 63
2019-04-13 13:00:00 18.4 3 Sudeste 6 Sudeste 0 -- -- 64
2019-04-13 12:00:00 18.2 5 Sudeste 15 Sudoeste 0 -- -- 60
2019-04-13 11:00:00 17.2 9 Sudoeste 15 Sudoeste 0 -- -- 71
2019-04-13 10:00:00 19.3 4 Noroeste 12 Norte 0 -- -- 45
2019-04-13 09:00:00 17.3 6 Noroeste 13 Noroeste 0 -- -- 47
2019-04-13 08:00:00 14.1 4 Noroeste 9 Norte 0 -- -- 55
2019-04-13 07:00:00 14.4 4 Noroeste 7 Noroeste 0 -- -- 54
2019-04-13 06:00:00 14.9 0 Calma 9 Norte 0 -- -- 61
2019-04-13 05:00:00 15.5 4 Noroeste 15 Norte 0 -- -- 50
2019-04-13 04:00:00 16.1 8 Norte 17 Norte 0 -- -- 49
2019-04-13 03:00:00 16.6 9 Norte 16 Norte 0 -- -- 46
2019-04-13 02:00:00 16.4 8 Norte 17 Norte 0 -- -- 45
2019-04-13 01:00:00 15.6 7 Norte 17 Noroeste 0 -- -- 50
2019-04-13 00:00:00 16.1 10 Norte 16 Noroeste 0 -- -- 56
2019-04-12 23:00:00 16.4 0 Calma 11 Sudoeste 0 -- -- 74
2019-04-12 22:00:00 17.1 8 Sudoeste 14 Sudoeste 0 -- -- 82
2019-04-12 21:00:00 17.2 6 Nordeste 9 Este 0 -- -- 81
2019-04-12 20:00:00 17.8 8 Nordeste 9 Nordeste 0 -- -- 77
2019-04-12 19:00:00 18.5 8 Sudoeste 18 Sudoeste 0 -- -- 73
2019-04-12 18:00:00 18.6 14 Sudoeste 20 Sudoeste 0 -- -- 73
2019-04-12 17:00:00 19.6 11 Sudoeste 15 Sudoeste 0 -- -- 73
2019-04-12 16:00:00 18.6 14 Sudoeste 16 Sudoeste 0 -- -- 74
2019-04-12 15:00:00 18.6 10 Sudoeste 14 Sudoeste 0 -- -- 76
2019-04-12 14:00:00 17.9 12 Sudoeste 16 Sudoeste 0 -- -- 77
2019-04-12 13:00:00 17.4 11 Sudoeste 14 Sudoeste 0 -- -- 74
2019-04-12 12:00:00 17.4 10 Sudoeste 12 Sudoeste 0 -- -- 65
2019-04-12 11:00:00 16.7 5 Sur 6 Sur 0 -- -- 64
2019-04-12 10:00:00 17.7 2 Sur 10 Noroeste 0 -- -- 53
2019-04-12 09:00:00 16.6 6 Noroeste 14 Noroeste 0 -- -- 46
2019-04-12 08:00:00 13.4 3 Norte 14 Norte 0 -- -- 57
2019-04-12 07:00:00 13.4 5 Oeste 9 Oeste 0 -- -- 60
2019-04-12 06:00:00 14.3 0 Calma 10 Noroeste 0 -- -- 64
2019-04-12 05:00:00 15 8 Noroeste 18 Noroeste 0 -- -- 56
2019-04-12 04:00:00 14.8 5 Norte 17 Noroeste 0 -- -- 58
2019-04-12 03:00:00 15.7 7 Norte 13 Noroeste 0 -- -- 54
2019-04-12 02:00:00 16.1 7 Noroeste 14 Noroeste 0 -- -- 51
2019-04-12 01:00:00 15.5 5 Noroeste 16 Norte 0 -- -- 55
2019-04-12 00:00:00 15.3 5 Norte 15 Sur 0 -- -- 56
2019-04-11 23:00:00 17.2 8 Noroeste 12 Noroeste 0 -- -- 46
2019-04-11 22:00:00 17.5 3 Noroeste 7 Oeste 0 -- -- 50
2019-04-11 21:00:00 18 2 Este 13 Nordeste 0 -- -- 51
2019-04-11 20:00:00 18.8 5 Nordeste 19 Norte 0 -- -- 58
2019-04-11 19:00:00 21.3 12 Norte 23 Norte 0 -- -- 38
2019-04-11 18:00:00 19.2 0 Calma 24 Sudeste 0 -- -- 58
2019-04-11 17:00:00 18.9 6 Sudeste 12 Sudeste 0 -- -- 59
2019-04-11 16:00:00 19.1 5 Sudeste 27 Sudoeste 0 -- -- 57
2019-04-11 15:00:00 19.2 23 Sudoeste 43 Sudoeste 0 -- -- 48
2019-04-11 14:00:00 17.6 30 Sudoeste 38 Sudoeste 0 -- -- 62
2019-04-11 13:00:00 17.9 6 Este 10 Este 0 -- -- 61
2019-04-11 12:00:00 16.7 2 Sudoeste 10 Sur 0 -- -- 72
2019-04-11 11:00:00 15.5 8 Sur 10 Sur 0 -- -- 67
2019-04-11 10:00:00 16.5 4 Sudoeste 9 Norte 0 -- -- 60
2019-04-11 09:00:00 15.2 2 Noroeste 12 Norte 0 -- -- 54
2019-04-11 08:00:00 12.6 8 Noroeste 13 Noroeste 0 -- -- 63
2019-04-11 07:00:00 13.1 8 Noroeste 15 Noroeste 0 -- -- 60
2019-04-11 06:00:00 13.2 9 Noroeste 15 Noroeste 0 -- -- 60
2019-04-11 05:00:00 14 5 Oeste 14 Norte 0 -- -- 58
2019-04-11 04:00:00 13.5 10 Norte 15 Norte 0 -- -- 61
2019-04-11 03:00:00 15.4 8 Oeste 18 Oeste 0 -- -- 54
2019-04-11 02:00:00 14.4 9 Oeste 19 Oeste 0 -- -- 69
2019-04-11 01:00:00 15.4 9 Oeste 23 Oeste 0 -- -- 66
2019-04-11 00:00:00 16 14 Sudoeste 17 Sudoeste 0 -- -- 76
2019-04-10 23:00:00 16 5 Noroeste 30 Oeste 0 -- -- 66
2019-04-10 22:00:00 16.4 21 Oeste 37 Sudoeste 0 -- -- 71
2019-04-10 21:00:00 16.9 28 Oeste 40 Oeste 0 -- -- 69
2019-04-10 20:00:00 18.7 21 Oeste 29 Oeste 0 -- -- 48
2019-04-10 19:00:00 20.3 15 Noroeste 32 Noroeste 0 -- -- 34
2019-04-10 18:00:00 21.4 12 Noroeste 36 Norte 0 -- -- 35
2019-04-10 17:00:00 20.7 15 Noroeste 38 Noroeste 0 -- -- 34
2019-04-10 16:00:00 20.7 13 Noroeste 31 Noroeste 0 -- -- 35
2019-04-10 15:00:00 17.5 9 Sudeste 17 Este 0 -- -- 46
2019-04-10 14:00:00 16.9 10 Sudeste 18 Sudeste 0 -- -- 62
2019-04-10 13:00:00 16.3 13 Sudeste 18 Sudeste 0 -- -- 53
2019-04-10 12:00:00 15.9 15 Nordeste 18 Nordeste 0 -- -- 63
2019-04-10 11:00:00 16.1 10 Este 14 Sudeste 0 -- -- 60
2019-04-10 10:00:00 16.6 4 Norte 10 Sudoeste 0 -- -- 48
2019-04-10 09:00:00 14.4 8 Sudoeste 14 Oeste 0 -- -- 58
2019-04-10 08:00:00 12.3 10 Oeste 14 Oeste 0 -- -- 66
2019-04-10 07:00:00 12.8 6 Oeste 12 Oeste 0 -- -- 61
2019-04-10 06:00:00 13.3 6 Oeste 20 Noroeste 0 -- -- 61
2019-04-10 05:00:00 14.5 8 Noroeste 13 Noroeste 0 -- -- 56
2019-04-10 04:00:00 14.2 7 Noroeste 16 Noroeste 0 -- -- 63
2019-04-10 03:00:00 13.8 5 Oeste 14 Oeste 0 -- -- 75
2019-04-10 02:00:00 13.9 5 Norte 22 Sudoeste 0 -- -- 76
2019-04-10 01:00:00 14.9 18 Sudoeste 21 Sudoeste 0 -- -- 75
2019-04-10 00:00:00 14.9 17 Oeste 21 Oeste 0 -- -- 69
2019-04-09 23:00:00 15.5 14 Oeste 21 Oeste 0 -- -- 64
2019-04-09 22:00:00 16 8 Oeste 27 Oeste 0 -- -- 65
2019-04-09 21:00:00 16.6 20 Oeste 39 Sudoeste 0 -- -- 61
2019-04-09 20:00:00 16.5 34 Sudoeste 44 Sudoeste 0 -- -- 71
2019-04-09 19:00:00 17.2 32 Sudoeste 48 Sudoeste 0 -- -- 65
2019-04-09 18:00:00 20.5 22 Oeste 46 Oeste 0 -- -- 42
2019-04-09 17:00:00 19.9 22 Oeste 51 Sudoeste 0 -- -- 48
2019-04-09 16:00:00 19.8 21 Oeste 40 Sudoeste 0 -- -- 45
2019-04-09 15:00:00 16.3 30 Sudoeste 43 Sudoeste 0 -- -- 67
2019-04-09 14:00:00 15.6 34 Sudoeste 48 Sudoeste 0 -- -- 69
2019-04-09 13:00:00 16.9 17 Oeste 39 Sudoeste 0 -- -- 53
2019-04-09 12:00:00 15.4 24 Sudoeste 35 Sudoeste 0 -- -- 72
2019-04-09 11:00:00 15.5 16 Sudoeste 24 Sudoeste 0 -- -- 69
2019-04-09 10:00:00 15.2 14 Oeste 21 Oeste 0 -- -- 64
2019-04-09 09:00:00 14.5 0 Calma 7 Noroeste 0 -- -- 64
2019-04-09 08:00:00 11.7 4 Norte 12 Nordeste 0 -- -- 68
2019-04-09 07:00:00 13.3 5 Noroeste 14 Oeste 0 -- -- 56
2019-04-09 06:00:00 12.8 3 Noroeste 20 Oeste 0 -- -- 65
2019-04-09 05:00:00 14.4 7 Noroeste 19 Oeste 0 -- -- 54
2019-04-09 04:00:00 13.8 8 Norte 22 Noroeste 0 -- -- 66
2019-04-09 03:00:00 13.2 9 Norte 30 Sudoeste 0 -- -- 76
2019-04-09 02:00:00 15.3 13 Oeste 22 Oeste 0 -- -- 72
2019-04-09 01:00:00 15.3 17 Oeste 32 Sudoeste 0 -- -- 72
2019-04-09 00:00:00 14.9 27 Sudoeste 34 Sudoeste 0 -- -- 83
2019-04-08 23:00:00 15.4 18 Sudoeste 37 Sudoeste 0 -- -- 84
2019-04-08 22:00:00 15.4 28 Sudoeste 35 Sudoeste 0 -- -- 88
2019-04-08 21:00:00 15.4 28 Sudoeste 37 Sudoeste 0 -- -- 90
2019-04-08 20:00:00 15.9 26 Sudoeste 38 Sudoeste 0 -- -- 86
2019-04-08 19:00:00 16.9 32 Oeste 44 Oeste 0 -- -- 73
2019-04-08 18:00:00 17.2 31 Sudoeste 41 Sudoeste 0 -- -- 74
2019-04-08 17:00:00 17.9 27 Oeste 44 Oeste 0 -- -- 68
2019-04-08 16:00:00 17.2 33 Sudoeste 40 Sudoeste 0 -- -- 76
2019-04-08 15:00:00 17.1 31 Sudoeste 41 Sudoeste 0 -- -- 77
2019-04-08 14:00:00 16.9 32 Sudoeste 40 Sudoeste 0 -- -- 82
2019-04-08 13:00:00 16 19 Sudoeste 35 Sudoeste 0 -- -- 89
2019-04-08 12:00:00 15.6 33 Sudoeste 41 Sudoeste 0 -- -- 88
2019-04-08 11:00:00 16.4 22 Sudoeste 31 Sudoeste 0 -- -- 83
2019-04-08 10:00:00 15.9 26 Sudoeste 32 Sudoeste 0 -- -- 85
2019-04-08 09:00:00 15.1 23 Sudoeste 30 Sudoeste 0 -- -- 90
2019-04-08 08:00:00 14.9 18 Oeste 27 Sudoeste 0 -- -- 90
2019-04-08 07:00:00 14.7 16 Oeste 27 Oeste 0 -- -- 90
2019-04-08 06:00:00 14.4 2 Norte 25 Sudoeste 0 -- -- 90
2019-04-08 05:00:00 14.9 21 Sudoeste 26 Sudoeste 0 -- -- 92
2019-04-08 04:00:00 14.8 18 Sudoeste 33 Sudoeste 0 -- -- 92
2019-04-08 03:00:00 15.3 19 Oeste 28 Sudoeste 0 -- -- 88
2019-04-08 02:00:00 15.3 18 Sudoeste 30 Sudoeste 0 -- -- 89
2019-04-08 01:00:00 15.3 24 Sudoeste 30 Sudoeste 0 -- -- 91
2019-04-08 00:00:00 14.9 14 Oeste 19 Sudoeste 0 -- -- 92
2019-04-07 23:00:00 14.8 7 Oeste 24 Sudoeste 0.2 -- -- 94
2019-04-07 22:00:00 14.9 11 Oeste 25 Sudoeste 0.4 -- -- 94
2019-04-07 21:00:00 14.8 12 Oeste 29 Oeste 0.4 -- -- 94
2019-04-07 20:00:00 14.6 15 Oeste 32 Sudoeste 0.4 -- -- 93
2019-04-07 19:00:00 14.5 27 Sudoeste 38 Oeste 0 -- -- 91
2019-04-07 18:00:00 15.1 28 Sudoeste 41 Sudoeste 0 -- -- 87
2019-04-07 17:00:00 15.2 35 Sudoeste 42 Sudoeste 0 -- -- 79
2019-04-07 16:00:00 16.4 19 Oeste 30 Oeste 0 -- -- 65
2019-04-07 15:00:00 16.5 13 Oeste 31 Sudoeste 0 -- -- 62
2019-04-07 14:00:00 16.3 23 Oeste 32 Sudoeste 0 -- -- 67
2019-04-07 13:00:00 15.9 16 Oeste 32 Oeste 0 -- -- 65
2019-04-07 12:00:00 15.7 12 Sudoeste 37 Oeste 0 -- -- 66
2019-04-07 11:00:00 15.8 15 Oeste 29 Oeste 0 -- -- 57
2019-04-07 10:00:00 15.3 9 Oeste 25 Oeste 0 -- -- 60
2019-04-07 09:00:00 14.2 6 Noroeste 22 Oeste 0 -- -- 61
2019-04-07 08:00:00 13.3 6 Noroeste 26 Oeste 0 -- -- 63
2019-04-07 07:00:00 13.3 9 Sudoeste 23 Sudoeste 0 -- -- 67
2019-04-07 06:00:00 12.9 10 Sudoeste 28 Noroeste 0 -- -- 73
2019-04-07 05:00:00 12.1 9 Noroeste 36 Sudoeste 0.2 -- -- 83
2019-04-07 04:00:00 13 15 Sudoeste 31 Oeste 0 -- -- 76
2019-04-07 03:00:00 13.1 10 Oeste 36 Oeste 0 -- -- 73
2019-04-07 02:00:00 13.6 24 Oeste 44 Oeste 0 -- -- 72
2019-04-07 01:00:00 13.5 17 Oeste 30 Oeste 0 -- -- 72
2019-04-07 00:00:00 13.6 22 Oeste 40 Oeste 0 -- -- 71
2019-04-06 23:00:00 13.8 30 Oeste 53 Sudoeste 0 -- -- 71
2019-04-06 22:00:00 14 23 Oeste 42 Oeste 0 -- -- 66
2019-04-06 21:00:00 14.3 24 Oeste 42 Sudoeste 0 -- -- 63
2019-04-06 20:00:00 14.8 24 Oeste 46 Oeste 0 -- -- 56
2019-04-06 19:00:00 14.6 40 Sudoeste 55 Sudoeste 0 -- -- 75
2019-04-06 18:00:00 14.8 30 Oeste 45 Sudoeste 0 -- -- 67
2019-04-06 17:00:00 14.2 21 Oeste 49 Sudoeste 0.4 -- -- 76
2019-04-06 16:00:00 13.9 40 Oeste 55 Sudoeste 0 -- -- 78
2019-04-06 15:00:00 15.5 23 Oeste 41 Oeste 0.4 -- -- 59
2019-04-06 14:00:00 14.5 24 Oeste 43 Oeste 0.2 -- -- 67
2019-04-06 13:00:00 14.1 33 Sudoeste 42 Sudoeste 0 -- -- 71
2019-04-06 12:00:00 13.4 31 Sudoeste 38 Sudoeste 0 -- -- 76
2019-04-06 11:00:00 13.5 21 Oeste 31 Oeste 0 -- -- 66
2019-04-06 10:00:00 11.8 18 Oeste 40 Sudoeste 0 -- -- 77
2019-04-06 09:00:00 11.9 3 Sur 22 Oeste 0 -- -- 69
2019-04-06 08:00:00 11.8 16 Sudoeste 36 Sudoeste 0 -- -- 73
2019-04-06 07:00:00 12.4 26 Sudoeste 38 Sudoeste 0 -- -- 67
2019-04-06 06:00:00 11.5 2 Noroeste 37 Sudoeste 0 -- -- 72
2019-04-06 05:00:00 12.2 12 Oeste 30 Oeste 0 -- -- 62
2019-04-06 04:00:00 12.2 19 Oeste 32 Oeste 0 -- -- 56
2019-04-06 03:00:00 12 17 Oeste 27 Oeste 0 -- -- 57
2019-04-06 02:00:00 12.3 18 Oeste 36 Oeste 0 -- -- 57
2019-04-06 01:00:00 12.6 17 Oeste 36 Oeste 0 -- -- 58
2019-04-06 00:00:00 12.7 19 Oeste 36 Oeste 0 -- -- 58
2019-04-05 23:00:00 12.4 14 Oeste 30 Oeste 0 -- -- 61
2019-04-05 22:00:00 13 26 Oeste 43 Oeste 0 -- -- 61
2019-04-05 21:00:00 13.4 23 Oeste 43 Oeste 0 -- -- 58
2019-04-05 20:00:00 14.5 30 Oeste 42 Sudoeste 0 -- -- 54
2019-04-05 19:00:00 15.9 13 Oeste 53 Sudoeste 0 -- -- 43
2019-04-05 18:00:00 15.9 26 Oeste 55 Oeste 0 -- -- 46
2019-04-05 17:00:00 16.3 25 Oeste 56 Oeste 0 -- -- 39
2019-04-05 16:00:00 15.7 18 Oeste 42 Oeste 0 -- -- 48
2019-04-05 15:00:00 15.9 26 Oeste 53 Oeste 0 -- -- 48
2019-04-05 14:00:00 13.2 21 Sudoeste 24 Sudoeste 0.4 -- -- 80
2019-04-05 13:00:00 12.3 23 Oeste 51 Sudoeste 3.4 -- -- 87
2019-04-05 12:00:00 12.9 25 Sudoeste 36 Sudoeste 0.4 -- -- 86
2019-04-05 11:00:00 13.2 30 Sudoeste 36 Sudoeste 0.6 -- -- 84
2019-04-05 10:00:00 12.9 15 Oeste 61 Sudoeste 2.8 -- -- 91
2019-04-05 09:00:00 13.8 39 Sudoeste 49 Sudoeste 2.8 -- -- 92
2019-04-05 08:00:00 13.1 23 Oeste 41 Sudoeste 1.2 -- -- 88
2019-04-05 07:00:00 13.2 12 Oeste 36 Sudoeste 0 -- -- 80
2019-04-05 06:00:00 13.9 27 Sudoeste 32 Sudoeste 0 -- -- 75
2019-04-05 05:00:00 13.8 17 Oeste 26 Sudoeste 0 -- -- 70
2019-04-05 04:00:00 13.4 7 Oeste 26 Oeste 0 -- -- 57
2019-04-05 03:00:00 13.3 6 Noroeste 22 Noroeste 0 -- -- 55
2019-04-05 02:00:00 12.9 14 Oeste 21 Oeste 0 -- -- 62
2019-04-05 01:00:00 12.5 8 Oeste 26 Oeste 0 -- -- 57
2019-04-05 00:00:00 13 23 Oeste 45 Oeste 0 -- -- 62
2019-04-04 23:00:00 13.3 28 Oeste 47 Oeste 0 -- -- 63
2019-04-04 22:00:00 14.1 33 Oeste 50 Oeste 0 -- -- 61
2019-04-04 21:00:00 14.8 39 Sudoeste 59 Sudoeste 0 -- -- 65
2019-04-04 20:00:00 15.6 48 Sudoeste 60 Sudoeste 0 -- -- 66
2019-04-04 19:00:00 15.7 46 Sudoeste 56 Sudoeste 0 -- -- 70
2019-04-04 18:00:00 16 49 Sudoeste 62 Sudoeste 0 -- -- 66
2019-04-04 17:00:00 16.4 51 Sudoeste 62 Sudoeste 0 -- -- 63
2019-04-04 16:00:00 16.9 41 Sudoeste 49 Sudoeste 0 -- -- 57
2019-04-04 15:00:00 16.7 36 Sudoeste 45 Sudoeste 0 -- -- 62
2019-04-04 14:00:00 16.6 37 Sudoeste 44 Sudoeste 0 -- -- 56
2019-04-04 13:00:00 16.2 35 Sudoeste 44 Sudoeste 0 -- -- 62
2019-04-04 12:00:00 15.6 20 Sudoeste 26 Sudoeste 0 -- -- 60
2019-04-04 11:00:00 15.4 8 Sur 14 Sudoeste 0 -- -- 48
2019-04-04 10:00:00 16.3 4 Noroeste 12 Noroeste 0 -- -- 42
2019-04-04 09:00:00 13.6 6 Noroeste 12 Norte 0 -- -- 50
2019-04-04 08:00:00 11.6 4 Noroeste 9 Noroeste 0 -- -- 56
2019-04-04 07:00:00 12.2 6 Noroeste 12 Noroeste 0 -- -- 56
2019-04-04 06:00:00 12.5 0 Calma 9 Norte 0 -- -- 63
2019-04-04 05:00:00 13.4 8 Noroeste 13 Noroeste 0 -- -- 56
2019-04-04 04:00:00 13.3 3 Noroeste 13 Noroeste 0 -- -- 57
2019-04-04 03:00:00 14.2 6 Noroeste 12 Oeste 0 -- -- 57
2019-04-04 02:00:00 14.4 5 Norte 9 Este 0 -- -- 51
2019-04-04 01:00:00 16.1 4 Noroeste 17 Oeste 0 -- -- 43
2019-04-04 00:00:00 16.5 8 Noroeste 15 Noroeste 0 -- -- 41
2019-04-03 23:00:00 17.2 5 Oeste 23 Oeste 0 -- -- 39
2019-04-03 22:00:00 18.2 15 Oeste 24 Oeste 0 -- -- 46
2019-04-03 21:00:00 19.9 12 Oeste 31 Oeste 0 -- -- 36
2019-04-03 20:00:00 22.1 19 Oeste 31 Oeste 0 -- -- 37
2019-04-03 19:00:00 18.8 6 Nordeste 13 Nordeste 0 -- -- 74
2019-04-03 18:00:00 19 4 Este 9 Este 0 -- -- 71
2019-04-03 17:00:00 19.1 4 Este 6 Este 0 -- -- 68
2019-04-03 16:00:00 18.3 3 Sur 18 Sudoeste 0 -- -- 74
2019-04-03 15:00:00 16.8 15 Sur 22 Sur 0 -- -- 69
2019-04-03 14:00:00 17 8 Sudoeste 9 Sudoeste 0 -- -- 73
2019-04-03 13:00:00 17.9 6 Sudoeste 9 Sudoeste 0 -- -- 71
2019-04-03 12:00:00 16.5 6 Sur 11 Sudeste 0 -- -- 75
2019-04-03 11:00:00 17.3 5 Este 8 Nordeste 0 -- -- 70
2019-04-03 10:00:00 17.6 5 Norte 17 Norte 0 -- -- 52
2019-04-03 09:00:00 14.7 7 Norte 17 Norte 0 -- -- 60
2019-04-03 08:00:00 13.2 5 Norte 10 Norte 0 -- -- 66
2019-04-03 07:00:00 13.1 3 Noroeste 13 Norte 0 -- -- 69
2019-04-03 06:00:00 13.2 5 Norte 9 Noroeste 0 -- -- 73
2019-04-03 05:00:00 13.4 0 Calma 8 Norte 0 -- -- 77
2019-04-03 04:00:00 14 5 Norte 15 Norte 0 -- -- 73
2019-04-03 03:00:00 14 4 Noroeste 14 Norte 0 -- -- 79
2019-04-03 02:00:00 14.4 2 Norte 6 Sudoeste 0 -- -- 83
2019-04-03 01:00:00 15.1 0 Calma 8 Noroeste 0 -- -- 80
2019-04-03 00:00:00 15.5 5 Noroeste 16 Oeste 0 -- -- 80
2019-04-02 23:00:00 16.2 8 Sudoeste 11 Sudoeste 0 -- -- 81
2019-04-02 22:00:00 16.3 4 Norte 19 Sudoeste 0 -- -- 77
2019-04-02 21:00:00 16.6 16 Sudoeste 19 Sudoeste 0 -- -- 80
2019-04-02 20:00:00 16.7 12 Sudoeste 15 Sudoeste 0 -- -- 78
2019-04-02 19:00:00 16.6 9 Sudoeste 15 Sudoeste 0 -- -- 81
2019-04-02 18:00:00 16.8 13 Sudoeste 17 Sudoeste 0 -- -- 80
2019-04-02 17:00:00 16.4 11 Sudoeste 14 Sudoeste 0 -- -- 77
2019-04-02 16:00:00 16.2 10 Sur 13 Sur 0 -- -- 80
2019-04-02 15:00:00 16.2 9 Sur 10 Sur 0 -- -- 78
2019-04-02 14:00:00 15.9 7 Sudeste 13 Sudeste 0 -- -- 79
2019-04-02 13:00:00 16 8 Sudeste 12 Sudeste 0 -- -- 78
2019-04-02 12:00:00 15.6 8 Sudeste 10 Sudeste 0 -- -- 71
2019-04-02 11:00:00 15.5 4 Sudoeste 6 Nordeste 0 -- -- 67
2019-04-02 10:00:00 14.8 5 Norte 15 Norte 0 -- -- 68
2019-04-02 09:00:00 12.4 9 Norte 16 Noroeste 0 -- -- 77
2019-04-02 08:00:00 11.7 9 Norte 14 Norte 0 -- -- 81
2019-04-02 07:00:00 11.7 9 Norte 15 Noroeste 0 -- -- 82
2019-04-02 06:00:00 11.9 9 Norte 15 Noroeste 0 -- -- 81
2019-04-02 05:00:00 11.9 9 Noroeste 14 Norte 0 -- -- 82
2019-04-02 04:00:00 12.2 8 Norte 14 Noroeste 0 -- -- 82
2019-04-02 03:00:00 12.4 6 Norte 12 Noroeste 0 -- -- 83
2019-04-02 02:00:00 12.9 10 Noroeste 16 Norte 0 -- -- 81
2019-04-02 01:00:00 13.3 6 Norte 14 Norte 0 -- -- 85
2019-04-02 00:00:00 13.6 9 Norte 15 Norte 0 -- -- 88
2019-04-01 23:00:00 14.3 5 Noroeste 10 Norte 0 -- -- 88
2019-04-01 22:00:00 14.9 6 Noroeste 11 Noroeste 0 -- -- 85
2019-04-01 21:00:00 15.9 5 Nordeste 8 Nordeste 0 -- -- 84
2019-04-01 20:00:00 16.2 7 Nordeste 9 Nordeste 0 -- -- 81
2019-04-01 19:00:00 16.6 6 Este 10 Este 0 -- -- 80
2019-04-01 18:00:00 16.4 6 Este 9 Este 0 -- -- 79
2019-04-01 17:00:00 15.9 10 Sudeste 17 Sur 0 -- -- 81
2019-04-01 16:00:00 15.4 10 Sur 13 Sudeste 0 -- -- 80
2019-04-01 15:00:00 15.6 6 Sudoeste 14 Oeste 0 -- -- 81
2019-04-01 14:00:00 15 5 Noroeste 15 Oeste 2.6 -- -- 87
2019-04-01 13:00:00 15.4 7 Noroeste 19 Oeste 1 -- -- 85
2019-04-01 12:00:00 15.9 4 Sudeste 13 Oeste 0 -- -- 83
2019-04-01 11:00:00 14.9 7 Oeste 13 Oeste 2.6 -- -- 86
2019-04-01 10:00:00 15.6 3 Noroeste 11 Noroeste 0 -- -- 79
2019-04-01 09:00:00 14.1 6 Noroeste 12 Noroeste 0.2 -- -- 84
2019-04-01 08:00:00 13.8 7 Oeste 30 Sudoeste 0.8 -- -- 86
2019-04-01 07:00:00 13.5 8 Norte 14 Noroeste 0 -- -- 88
2019-04-01 06:00:00 13.2 6 Norte 14 Norte 0 -- -- 90
2019-04-01 05:00:00 -- 6 Norte 13 Norte 0 -- -- 91
2019-04-01 04:00:00 -- 6 Noroeste 12 Norte 0 -- -- 90
2019-04-01 03:00:00 -- 6 Norte 11 Noroeste 0 -- -- 89
2019-04-01 02:00:00 -- 5 Norte 8 Norte 0 -- -- 88
2019-04-01 01:00:00 -- 0 Calma 8 Norte 0 -- -- 89
2019-04-01 00:00:00 -- 0 Calma 8 Norte 0 -- -- 89
2019-03-31 23:00:00 -- 3 Oeste 14 Sudoeste 0 -- -- 88
2019-03-31 22:00:00 -- 8 Oeste 16 Sudoeste 0 -- -- 88
2019-03-31 21:00:00 -- 13 Sudoeste 16 Oeste 0 -- -- 87
2019-03-31 20:00:00 -- 13 Oeste 20 Sudoeste 0 -- -- 87
2019-03-31 19:00:00 -- 13 Sudoeste 21 Sudoeste 0 -- -- 85
2019-03-31 18:00:00 -- 13 Sudoeste 20 Sudoeste 0 -- -- 84
2019-03-31 17:00:00 -- 16 Sudoeste 21 Sudoeste 0 -- -- 83
2019-03-31 16:00:00 -- 10 Sudoeste 20 Sudoeste 0 -- -- 83
2019-03-31 15:00:00 -- 18 Sudoeste 23 Sudoeste 0 -- -- 83
2019-03-31 14:00:00 -- 14 Sur 17 Sur 0 -- -- 81
2019-03-31 13:00:00 -- 8 Sudoeste 13 Sudoeste 0 -- -- 79
2019-03-31 12:00:00 -- 9 Sudoeste 12 Sudoeste 0 -- -- 85
2019-03-31 11:00:00 -- 4 Nordeste 8 Noroeste 0 -- -- 88
2019-03-31 10:00:00 -- 5 Noroeste 9 Noroeste 0 -- -- 90
2019-03-31 09:00:00 -- 2 Norte 12 Este 0 -- -- 90
2019-03-31 08:00:00 -- 9 Este 19 Nordeste 0 -- -- 90
2019-03-31 07:00:00 -- 14 Este 21 Este 0.2 -- -- 93
2019-03-31 06:00:00 -- 3 Nordeste 15 Este 0.2 -- -- 93
2019-03-31 05:00:00 -- 9 Este 22 Este 0.4 -- -- 93
2019-03-31 03:00:00 -- 17 Este 31 Nordeste 0.4 -- -- 89
2019-03-31 01:00:00 -- 24 Nordeste 31 Nordeste 1.4 -- -- 92
2019-03-31 00:00:00 -- 12 Nordeste 21 Nordeste 2.6 -- -- 92
2019-03-30 23:00:00 -- 16 Nordeste 29 Nordeste 0 -- -- 87
2019-03-30 22:00:00 -- 21 Nordeste 30 Nordeste 0 -- -- 78
2019-03-30 21:00:00 -- 19 Este 27 Este 0 -- -- 83
2019-03-30 20:00:00 -- 20 Este 25 Este 0 -- -- 83
2019-03-30 19:00:00 -- 17 Este 24 Este 0 -- -- 83
2019-03-30 18:00:00 -- 16 Este 30 Este 0 -- -- 84
2019-03-30 17:00:00 -- 22 Este 32 Este 0 -- -- 83
2019-03-30 16:00:00 -- 25 Este 39 Este 0 -- -- 82
2019-03-30 15:00:00 -- 31 Este 38 Este 0 -- -- 81
2019-03-30 14:00:00 -- 30 Este 35 Este 0 -- -- 80
2019-03-30 13:00:00 -- 29 Este 37 Este 0 -- -- 79
2019-03-30 12:00:00 -- 30 Este 40 Este 0 -- -- 76
2019-03-30 11:00:00 -- 28 Este 37 Este 0 -- -- 73
2019-03-30 10:00:00 -- 28 Este 36 Este 0 -- -- 77
2019-03-30 09:00:00 -- 26 Nordeste 39 Nordeste 0 -- -- 78
2019-03-30 08:00:00 -- 23 Nordeste 33 Nordeste 0 -- -- 77
2019-03-30 07:00:00 -- 21 Nordeste 35 Este 0 -- -- 78
2019-03-30 06:00:00 -- 26 Este 35 Este 0 -- -- 79
2019-03-30 05:00:00 -- 26 Este 33 Este 0 -- -- 78
2019-03-30 04:00:00 -- 26 Este 33 Este 0 -- -- 78
2019-03-30 03:00:00 -- 23 Este 35 Este 0 -- -- 78
2019-03-30 02:00:00 -- 26 Este 31 Este 0 -- -- 77
2019-03-30 01:00:00 -- 24 Este 31 Este 0 -- -- 77
2019-03-30 00:00:00 -- 25 Este 34 Este 0 -- -- 76
2019-03-29 23:00:00 -- 27 Este 37 Este 0 -- -- 77
2019-03-29 22:00:00 -- 18 Este 26 Este 0 -- -- 77
2019-03-29 21:00:00 -- 19 Nordeste 26 Este 0 -- -- 77
2019-03-29 20:00:00 -- 22 Este 30 Este 0 -- -- 77
2019-03-29 19:00:00 -- 22 Este 29 Este 0 -- -- 77
2019-03-29 18:00:00 -- 22 Este 32 Este 0 -- -- 75
2019-03-29 17:00:00 -- 24 Este 33 Este 0 -- -- 76
2019-03-29 16:00:00 -- 27 Este 36 Este 0 -- -- 74
2019-03-29 15:00:00 -- 24 Este 34 Este 0 -- -- 72
2019-03-29 14:00:00 -- 27 Este 35 Este 0 -- -- 73
2019-03-29 13:00:00 -- 30 Este 36 Este 0 -- -- 71
2019-03-29 12:00:00 -- 28 Este 39 Este 0 -- -- 75
2019-03-29 11:00:00 -- 31 Este 40 Este 0 -- -- 75
2019-03-29 10:00:00 -- 30 Este 39 Nordeste 0 -- -- 76
2019-03-29 09:00:00 -- 30 Este 38 Este 0 -- -- 76
2019-03-29 08:00:00 -- 27 Este 37 Este 0 -- -- 74
2019-03-29 07:00:00 -- 24 Este 32 Este 0 -- -- 74
2019-03-29 06:00:00 -- 23 Este 33 Este 0 -- -- 72
2019-03-29 05:00:00 -- 18 Este 30 Este 0 -- -- 68
2019-03-29 04:00:00 -- 16 Nordeste 28 Nordeste 0 -- -- 69
2019-03-29 03:00:00 -- 22 Nordeste 32 Nordeste 0 -- -- 69
2019-03-29 02:00:00 -- 17 Nordeste 25 Nordeste 0 -- -- 66
2019-03-29 01:00:00 -- 17 Nordeste 27 Nordeste 0 -- -- 68
2019-03-29 00:00:00 -- 22 Nordeste 28 Nordeste 0 -- -- 70
2019-03-28 23:00:00 -- 22 Nordeste 32 Nordeste 0 -- -- 71
2019-03-28 22:00:00 -- 24 Nordeste 32 Nordeste 0 -- -- 68
2019-03-28 21:00:00 -- 23 Nordeste 33 Nordeste 0 -- -- 70
2019-03-28 20:00:00 -- 23 Este 35 Nordeste 0 -- -- 70
2019-03-28 19:00:00 -- 26 Este 36 Este 0 -- -- 74
2019-03-28 18:00:00 -- 30 Este 36 Este 0 -- -- 72
2019-03-28 17:00:00 -- 28 Este 37 Este 0 -- -- 70
2019-03-28 16:00:00 -- 29 Este 41 Este 0 -- -- 71
2019-03-28 15:00:00 -- 33 Este 42 Este 0 -- -- 71
2019-03-28 14:00:00 -- 35 Este 42 Este 0 -- -- 69
2019-03-28 13:00:00 -- 34 Este 46 Este 0 -- -- 66
2019-03-28 12:00:00 -- 37 Este 51 Este 0 -- -- 64
2019-03-28 11:00:00 -- 35 Este 46 Este 0 -- -- 65
2019-03-28 10:00:00 -- 32 Este 41 Este 0 -- -- 64
2019-03-28 09:00:00 -- 28 Este 41 Este 0 -- -- 69
2019-03-28 08:00:00 -- 26 Nordeste 33 Nordeste 0 -- -- 70
2019-03-28 07:00:00 -- 23 Nordeste 33 Nordeste 0 -- -- 71
2019-03-28 06:00:00 -- 25 Nordeste 33 Nordeste 0 -- -- 71
2019-03-28 05:00:00 -- 23 Nordeste 32 Nordeste 0 -- -- 69
2019-03-28 04:00:00 -- 22 Nordeste 28 Nordeste 0 -- -- 69
2019-03-28 03:00:00 -- 22 Nordeste 31 Este 0 -- -- 69
2019-03-28 02:00:00 -- 26 Este 39 Este 0 -- -- 68
2019-03-28 01:00:00 -- 31 Este 38 Este 0 -- -- 65
2019-03-28 00:00:00 -- 31 Este 42 Este 0 -- -- 72
2019-03-27 23:00:00 -- 28 Este 36 Este 0 -- -- 74
2019-03-27 22:00:00 -- 24 Este 30 Este 0 -- -- 74
2019-03-27 21:00:00 -- 21 Este 27 Este 0 -- -- 71
2019-03-27 20:00:00 -- 20 Este 31 Este 0 -- -- 70
2019-03-27 19:00:00 -- 23 Este 34 Este 0 -- -- 68
2019-03-27 18:00:00 -- 29 Este 36 Este 0 -- -- 65
2019-03-27 17:00:00 -- 26 Este 37 Este 0 -- -- 64
2019-03-27 16:00:00 -- 30 Este 40 Este 0 -- -- 61
2019-03-27 15:00:00 -- 29 Este 42 Este 0 -- -- 60
2019-03-27 14:00:00 -- 30 Este 44 Este 0 -- -- 63
2019-03-27 13:00:00 -- 37 Este 49 Este 0 -- -- 54
2019-03-27 12:00:00 -- 32 Este 49 Este 0 -- -- 56
2019-03-27 11:00:00 -- 36 Este 55 Este 0 -- -- 59
2019-03-27 10:00:00 -- 40 Este 55 Este 0 -- -- 65
2019-03-27 09:00:00 -- 42 Este 55 Este 0 -- -- 64
2019-03-27 08:00:00 -- 39 Este 55 Este 0 -- -- 68
2019-03-27 07:00:00 -- 38 Este 56 Este 0 -- -- 67
2019-03-27 06:00:00 -- 36 Este 55 Este 0 -- -- 68
2019-03-27 05:00:00 -- 38 Este 55 Este 0 -- -- 65
2019-03-27 04:00:00 -- 39 Este 53 Este 0 -- -- 67
2019-03-27 03:00:00 -- 35 Este 49 Este 0 -- -- 71
2019-03-27 02:00:00 -- 36 Este 48 Este 0 -- -- 72
2019-03-27 01:00:00 -- 30 Este 40 Este 0 -- -- 68
2019-03-27 00:00:00 -- 30 Este 43 Sudeste 0 -- -- 67
2019-03-26 23:00:00 -- 33 Este 46 Este 0 -- -- 58
2019-03-26 22:00:00 -- 27 Sudeste 39 Este 0 -- -- 77
2019-03-26 21:00:00 -- 18 Sudeste 28 Este 0 -- -- 78
2019-03-26 20:00:00 -- 9 Sudeste 12 Sudeste 0 -- -- 80
2019-03-26 19:00:00 -- 9 Este 12 Este 0 -- -- 76
2019-03-26 18:00:00 -- 7 Sudeste 16 Este 0 -- -- 71
2019-03-26 17:00:00 -- 3 Nordeste 12 Este 0 -- -- 66
2019-03-26 16:00:00 -- 9 Este 16 Este 0 -- -- 61
2019-03-26 15:00:00 -- 12 Este 22 Este 0 -- -- 56
2019-03-26 14:00:00 -- 10 Este 18 Este 0 -- -- 57
2019-03-26 13:00:00 -- 13 Este 22 Este 0 -- -- 56
2019-03-26 12:00:00 -- 13 Este 30 Este 0 -- -- 64
2019-03-26 11:00:00 -- 19 Este 28 Este 0 -- -- 59
2019-03-26 10:00:00 -- 10 Este 18 Este 0 -- -- 61
2019-03-26 09:00:00 -- 19 Este 30 Nordeste 0 -- -- 57
2019-03-26 08:00:00 -- 17 Nordeste 30 Nordeste 0 -- -- 63
2019-03-26 07:00:00 -- 14 Este 24 Este 0 -- -- 66
2019-03-26 06:00:00 -- 14 Nordeste 27 Nordeste 0 -- -- 61
2019-03-26 05:00:00 -- 13 Nordeste 28 Nordeste 0 -- -- 65
2019-03-26 04:00:00 -- 17 Nordeste 29 Nordeste 0 -- -- 66
2019-03-26 03:00:00 -- 19 Nordeste 27 Nordeste 0 -- -- 67
2019-03-26 02:00:00 -- 25 Nordeste 36 Nordeste 0 -- -- 67
2019-03-26 01:00:00 -- 25 Nordeste 36 Nordeste 0 -- -- 65
2019-03-26 00:00:00 -- 19 Nordeste 30 Nordeste 0 -- -- 66
2019-03-25 23:00:00 -- 19 Nordeste 29 Nordeste 0 -- -- 68
2019-03-25 22:00:00 -- 23 Nordeste 30 Nordeste 0 -- -- 68
2019-03-25 21:00:00 -- 22 Este 32 Este 0 -- -- 69
2019-03-25 20:00:00 -- 17 Este 28 Este 0 -- -- 72
2019-03-25 19:00:00 -- 19 Este 26 Este 0 -- -- 76
2019-03-25 18:00:00 -- 19 Sudeste 29 Este 0 -- -- 73
2019-03-25 17:00:00 -- 22 Este 27 Este 0 -- -- 68
2019-03-25 16:00:00 -- 17 Este 22 Sudeste 0 -- -- 67
2019-03-25 15:00:00 -- 17 Este 25 Este 0 -- -- 67
2019-03-25 14:00:00 -- 20 Este 29 Este 0 -- -- 64
2019-03-25 13:00:00 -- 22 Este 31 Este 0 -- -- 66
2019-03-25 12:00:00 -- 18 Este 29 Este 0 -- -- 67
2019-03-25 11:00:00 -- 19 Este 25 Este 0 -- -- 63
2019-03-25 10:00:00 -- 17 Este 27 Este 0 -- -- 66
2019-03-25 09:00:00 -- 14 Este 26 Nordeste 0 -- -- 66
2019-03-25 08:00:00 -- 16 Este 21 Este 0 -- -- 67
2019-03-25 07:00:00 -- 4 Nordeste 14 Este 0 -- -- 72
2019-03-25 06:00:00 -- 9 Este 21 Este 0 -- -- 76
2019-03-25 05:00:00 -- 14 Este 26 Nordeste 0 -- -- 73
2019-03-25 04:00:00 -- 18 Nordeste 25 Este 0 -- -- 72
2019-03-25 03:00:00 -- 19 Nordeste 27 Nordeste 0 -- -- 72
2019-03-25 02:00:00 -- 17 Este 24 Nordeste 0 -- -- 71
2019-03-25 01:00:00 -- 20 Nordeste 28 Nordeste 0 -- -- 71
2019-03-25 00:00:00 -- 22 Este 30 Este 0 -- -- 69
2019-03-24 23:00:00 -- 19 Este 28 Nordeste 0 -- -- 68
2019-03-24 22:00:00 -- 18 Este 30 Nordeste 0 -- -- 68
2019-03-24 21:00:00 -- 20 Nordeste 33 Nordeste 0 -- -- 64
2019-03-24 20:00:00 -- 22 Nordeste 38 Nordeste 0 -- -- 64
2019-03-24 19:00:00 -- 25 Nordeste 41 Nordeste 0 -- -- 61
2019-03-24 18:00:00 -- 29 Nordeste 44 Nordeste 0 -- -- 64
2019-03-24 17:00:00 -- 29 Nordeste 44 Este 0 -- -- 65
2019-03-24 16:00:00 -- 30 Este 41 Este 0 -- -- 67
2019-03-24 15:00:00 -- 28 Nordeste 41 Nordeste 0 -- -- 68
2019-03-24 14:00:00 -- 13 Este 19 Este 0 -- -- 71
2019-03-24 13:00:00 -- 13 Este 30 Este 0 -- -- 75
2019-03-24 12:00:00 -- 24 Este 31 Este 0 -- -- 78
2019-03-24 11:00:00 -- 17 Nordeste 33 Nordeste 0 -- -- 78
2019-03-24 10:00:00 -- 25 Nordeste 36 Este 0 -- -- 78
2019-03-24 09:00:00 -- 19 Nordeste 25 Este 0 -- -- 77
2019-03-24 08:00:00 -- 14 Nordeste 21 Nordeste 0 -- -- 79
2019-03-24 07:00:00 -- 10 Nordeste 24 Este 0 -- -- 80
2019-03-24 06:00:00 -- 18 Este 30 Este 0 -- -- 81
2019-03-24 05:00:00 -- 19 Nordeste 35 Este 0 -- -- 79
2019-03-24 04:00:00 -- 26 Este 35 Este 0 -- -- 80
2019-03-24 03:00:00 -- 26 Este 34 Este 0 -- -- 78
2019-03-24 02:00:00 -- 22 Este 30 Este 0 -- -- 79
2019-03-24 01:00:00 -- 23 Este 36 Este 0 -- -- 78
2019-03-24 00:00:00 -- 24 Este 36 Este 0 -- -- 78
2019-03-23 23:00:00 -- 23 Este 36 Nordeste 0 -- -- 80
2019-03-23 22:00:00 -- 24 Este 35 Este 0 -- -- 78
2019-03-23 21:00:00 -- 20 Nordeste 31 Este 0 -- -- 76
2019-03-23 20:00:00 -- 24 Nordeste 41 Nordeste 0 -- -- 75
2019-03-23 19:00:00 -- 31 Este 43 Nordeste 0 -- -- 74
2019-03-23 18:00:00 -- 32 Este 46 Este 0 -- -- 75
2019-03-23 17:00:00 -- 31 Este 43 Este 0 -- -- 72
2019-03-23 16:00:00 -- 33 Este 42 Este 0 -- -- 75
2019-03-23 15:00:00 -- 35 Este 49 Este 0 -- -- 72
2019-03-23 14:00:00 -- 35 Este 44 Este 0 -- -- 73
2019-03-23 13:00:00 -- 35 Este 45 Este 0 -- -- 75
2019-03-23 12:00:00 -- 32 Este 44 Este 0 -- -- 76
2019-03-23 11:00:00 -- 31 Este 44 Este 0 -- -- 75
2019-03-23 10:00:00 -- 27 Este 39 Nordeste 0 -- -- 73
2019-03-23 09:00:00 -- 26 Nordeste 36 Nordeste 0 -- -- 73
2019-03-23 08:00:00 -- 25 Nordeste 33 Nordeste 0 -- -- 76
2019-03-23 07:00:00 -- 27 Nordeste 36 Nordeste 0 -- -- 75
2019-03-23 06:00:00 -- 22 Nordeste 38 Nordeste 0 -- -- 75
2019-03-23 05:00:00 -- 26 Nordeste 34 Nordeste 0 -- -- 75
2019-03-23 04:00:00 -- 24 Nordeste 31 Nordeste 0 -- -- 76
2019-03-23 03:00:00 -- 23 Nordeste 29 Nordeste 0 -- -- 76
2019-03-23 02:00:00 -- 21 Nordeste 28 Nordeste 0 -- -- 75
2019-03-23 01:00:00 -- 20 Nordeste 30 Nordeste 0 -- -- 74
2019-03-23 00:00:00 -- 23 Nordeste 30 Nordeste 0 -- -- 73
2019-03-22 23:00:00 -- 24 Nordeste 30 Nordeste 0 -- -- 74
2019-03-22 22:00:00 -- 20 Nordeste 32 Este 0 -- -- 76
2019-03-22 21:00:00 -- 24 Nordeste 33 Nordeste 0 -- -- 77
2019-03-22 20:00:00 -- 26 Nordeste 34 Este 0 -- -- 75
2019-03-22 19:00:00 -- 28 Este 36 Este 0 -- -- 76
2019-03-22 18:00:00 -- 28 Este 37 Este 0 -- -- 74
2019-03-22 17:00:00 -- 31 Este 38 Este 0 -- -- 73
2019-03-22 16:00:00 -- 28 Este 37 Este 0 -- -- 72
2019-03-22 15:00:00 -- 29 Este 38 Este 0 -- -- 67
2019-03-22 14:00:00 -- 31 Este 40 Este 0 -- -- 67
2019-03-22 13:00:00 -- 31 Este 39 Este 0 -- -- 65
2019-03-22 12:00:00 -- 27 Este 37 Este 0 -- -- 61
2019-03-22 11:00:00 -- 26 Este 40 Este 0 -- -- 63
2019-03-22 10:00:00 -- 26 Este 35 Nordeste 0 -- -- 64
2019-03-22 09:00:00 -- 23 Nordeste 31 Nordeste 0 -- -- 66
2019-03-22 08:00:00 -- 17 Nordeste 32 Nordeste 0 -- -- 69
2019-03-22 07:00:00 -- 26 Nordeste 32 Nordeste 0 -- -- 73
2019-03-22 06:00:00 -- 25 Nordeste 37 Nordeste 0 -- -- 73
2019-03-22 05:00:00 -- 24 Nordeste 32 Nordeste 0 -- -- 72
2019-03-22 04:00:00 -- 24 Nordeste 37 Este 0 -- -- 70
2019-03-22 03:00:00 -- 25 Nordeste 37 Este 0 -- -- 72
2019-03-22 02:00:00 -- 25 Nordeste 36 Este 0 -- -- 72
2019-03-22 01:00:00 -- 24 Nordeste 33 Nordeste 0 -- -- 71
2019-03-22 00:00:00 -- 22 Nordeste 30 Nordeste 0 -- -- 72
2019-03-21 23:00:00 -- 22 Nordeste 31 Nordeste 0 -- -- 71
2019-03-21 22:00:00 -- 16 Nordeste 26 Nordeste 0 -- -- 74
2019-03-21 21:00:00 -- 24 Este 32 Este 0 -- -- 72
2019-03-21 20:00:00 -- 21 Nordeste 31 Este 0 -- -- 70
2019-03-21 19:00:00 -- 21 Este 30 Este 0 -- -- 73
2019-03-21 18:00:00 -- 24 Este 36 Este 0 -- -- 65
2019-03-21 17:00:00 -- 26 Este 33 Este 0 -- -- 65
2019-03-21 16:00:00 -- 25 Este 35 Este 0 -- -- 64
2019-03-21 15:00:00 -- 26 Este 40 Este 0 -- -- 62
2019-03-21 14:00:00 -- 31 Este 39 Este 0 -- -- 60
2019-03-21 13:00:00 -- 31 Este 42 Este 0 -- -- 60
2019-03-21 12:00:00 -- 30 Este 40 Este 0 -- -- 60
2019-03-21 11:00:00 -- 30 Este 43 Este 0 -- -- 59
2019-03-21 10:00:00 -- 26 Nordeste 36 Nordeste 0 -- -- 61
2019-03-21 09:00:00 -- 24 Nordeste 31 Nordeste 0 -- -- 63
2019-03-21 08:00:00 -- 19 Nordeste 33 Nordeste 0 -- -- 66
2019-03-21 07:00:00 -- 18 Nordeste 35 Nordeste 0 -- -- 72
2019-03-21 06:00:00 -- 26 Nordeste 33 Nordeste 0 -- -- 71
2019-03-21 05:00:00 -- 16 Nordeste 24 Nordeste 0 -- -- 75
2019-03-21 04:00:00 -- 20 Nordeste 32 Nordeste 0 -- -- 75
2019-03-21 03:00:00 -- 18 Nordeste 40 Nordeste 0.6 -- -- 78
2019-03-21 02:00:00 -- 21 Nordeste 44 Nordeste 1.2 -- -- 82
2019-03-21 01:00:00 -- 30 Nordeste 44 Este 1.6 -- -- 85
2019-03-21 00:00:00 -- 20 Nordeste 50 Nordeste 0.8 -- -- 84
2019-03-20 23:00:00 -- 27 Este 41 Este 0 -- -- 70
2019-03-20 22:00:00 -- 28 Este 41 Este 0 -- -- 71
2019-03-20 21:00:00 -- 28 Este 35 Este 0 -- -- 70
2019-03-20 20:00:00 -- 24 Este 32 Este 0 -- -- 70
2019-03-20 19:00:00 -- 26 Este 33 Este 0 -- -- 71
2019-03-20 18:00:00 -- 25 Este 32 Este 0 -- -- 68
2019-03-20 17:00:00 -- 26 Este 36 Este 0 -- -- 68
2019-03-20 16:00:00 -- 26 Este 36 Este 0 -- -- 68
2019-03-20 15:00:00 -- 26 Este 39 Este 0.2 -- -- 68
2019-03-20 14:00:00 -- 28 Este 36 Este 0 -- -- 67
2019-03-20 13:00:00 -- 21 Nordeste 33 Nordeste 0 -- -- 68
2019-03-20 12:00:00 -- 23 Este 42 Nordeste 0 -- -- 66
2019-03-20 11:00:00 -- 26 Este 35 Este 0 -- -- 72
2019-03-20 10:00:00 -- 9 Norte 26 Nordeste 1.4 -- -- 81
2019-03-20 09:00:00 -- 16 Nordeste 27 Nordeste 1.6 -- -- 82
2019-03-20 08:00:00 -- 15 Nordeste 24 Nordeste 0 -- -- 73
2019-03-20 07:00:00 -- 19 Nordeste 29 Nordeste 0 -- -- 73
2019-03-20 06:00:00 -- 21 Nordeste 33 Este 0 -- -- 73
2019-03-20 05:00:00 -- 21 Este 34 Este 0 -- -- 76
2019-03-20 04:00:00 -- 24 Nordeste 34 Este 0 -- -- 76
2019-03-20 03:00:00 -- 26 Nordeste 38 Nordeste 0 -- -- 80
2019-03-20 02:00:00 -- 19 Nordeste 35 Nordeste 0.2 -- -- 81
2019-03-20 01:00:00 -- 30 Este 44 Este 1 -- -- 83
2019-03-20 00:00:00 -- 19 Nordeste 27 Este 0 -- -- 81
2019-03-19 23:00:00 -- 17 Este 30 Este 0 -- -- 81
2019-03-19 22:00:00 -- 21 Este 28 Este 0 -- -- 82
2019-03-19 21:00:00 -- 17 Este 23 Este 0 -- -- 82
2019-03-19 20:00:00 -- 13 Este 16 Este 0 -- -- 84
2019-03-19 19:00:00 -- 8 Sur 15 Sudoeste 0 -- -- 81
2019-03-19 18:00:00 -- 12 Sudoeste 15 Sudoeste 0 -- -- 79
2019-03-19 17:00:00 -- 9 Sur 15 Sur 0 -- -- 77
2019-03-19 16:00:00 -- 13 Sudoeste 15 Sudoeste 0 -- -- 76
2019-03-19 15:00:00 -- 10 Sudoeste 14 Sudoeste 0 -- -- 76
2019-03-19 14:00:00 -- 9 Sur 12 Sur 0 -- -- 76
2019-03-19 13:00:00 -- 8 Sur 13 Sudeste 0 -- -- 77
2019-03-19 12:00:00 -- 10 Sudeste 15 Sudeste 0 -- -- 80
2019-03-19 11:00:00 -- 12 Sudeste 15 Este 0 -- -- 79
2019-03-19 10:00:00 -- 11 Este 15 Este 0 -- -- 76
2019-03-19 09:00:00 -- 11 Nordeste 18 Nordeste 0 -- -- 78
2019-03-19 08:00:00 -- 14 Nordeste 19 Nordeste 0 -- -- 83
2019-03-19 07:00:00 -- 15 Nordeste 21 Este 0 -- -- 83
2019-03-19 06:00:00 -- 15 Este 21 Este 0 -- -- 84
2019-03-19 05:00:00 -- 14 Nordeste 22 Este 0 -- -- 85
2019-03-19 04:00:00 -- 18 Nordeste 23 Nordeste 0 -- -- 87
2019-03-19 03:00:00 -- 16 Nordeste 24 Este 0.2 -- -- 89
2019-03-19 02:00:00 -- 17 Nordeste 24 Este 0 -- -- 85
2019-03-19 01:00:00 -- 13 Este 22 Este 0 -- -- 85
2019-03-19 00:00:00 -- 14 Este 22 Este 0 -- -- 84